COSMOS 1372

Satellite information

Favourite Embed

Satellite Type and Status

PAYLOADIN ORBIT

Key statistics

Satellite COSMOS 1372 at a glance.

Uptime

15796

Days in orbit

Revolutions

≈ 13.9

Per day

Orbit

LEO

Low Earth Orbit

Inclination

64.9

Latest

Satellite identification and parameters

Extended collection of information and parameters for COSMOS 1372.

Object identification

Identified? True

Debris? False

Object name: COSMOS 1372

International designator: 1982-052A

Object number (NORAD): 13243

Object ID (CCSDS): 13243

Country: COMMONWEALTH OF INDEPENDENT STATES (CIS)

Current information (Y/N): Y

RCS size: LARGE

Orbital parameters

Period: 103.889 minutes

Inclination: 64.9025 deg

SMA: 7320.491 km

Apoapsis: 967.013 km

Periapsis: 917.699 km

RAAN: 291.5339 deg

Eccentricy: 0.00336817

Argument of periapsis: 346.4529 deg

Mean anomaly: 13.5624 deg

Mean motion: 13.86093185 rev/day

Mean motion (dot): -0.00000065 rev/day2

B* drag term: 0.000021171472 1/REarth

Two-line elements (TLE)

Creation date: Aug. 28, 2025, 11:13 p.m.

Reference frame: TEME

Reference center: EARTH

Epoch: Aug. 28, 2025, 11:43 a.m. UTC

TLE line 0: 0 COSMOS 1372

TLE line 1: 1 13243U 82052A 25240.48835710 -.00000065 00000-0 21171-4 0 9997

TLE line 2: 2 13243 64.9025 291.5339 0033682 346.4529 13.5624 13.86093185605734

Live tracking on map

Real-time ground track for satellite COSMOS 1372.

In-orbit conjunctions

A list of the most updated potential collisions computed for object COSMOS 1372.

Target Orbit TCA Probability of collision Miss distance Type
COSMOS 1275 DEB LEO 2025-02-14 08:34:50 0.0004195071 173.0 (m) DEBRIS
CZ-6A DEB SSO 2024-06-03 16:59:08 0.002063335 72.0 (m) DEBRIS

Associated space launch

Active radar satellite for ocean surveillance powered by a nuclear reactor.

COSMOS 1372 was lifted into orbit during the mission ‘Tsiklon-2 | US-A 21’, on board a Tsiklon-2 space rocket.

The launch took place on June 1, 1982, 1:58 p.m. from 90.

For more information about the launch, click the button.

Launch to space Tsiklon-2 | US-A 21
Tsiklon-2 | US-A 21

Agency: N/A

Status: Launch Successful

Launch date: June 1, 1982, 1:58 p.m. UTC

Rocket: Tsiklon-2

Launch pad: 90

Location: Baikonur Cosmodrome, Republic of Kazakhstan

...

Latest news about this satellite

There are no fresh news available about this satellite. Check back as we update our databases every day.


Newsletter sign-up

Weekly statistics, charts and insights to help you stay on top of the space industry.